Terminal Aerodrome Forecast
Issued by NWS Los Angeles, CA

Home | Current Version | Previous Version | Text Only | Print | Product List | Glossary On
Versions: 1 2 3 4 5 6 7 8 9 10 11 12 13 14 15 16 17 18 19
000
FTUS46 KLOX 012300
TAFSMX
TAF
KSMX 012335Z 0200/0224 30008KT P6SM SCT200
     FM020300 VRB03KT P6SM SCT200
     FM021000 VRB03KT 4SM BR SCT200
     FM021700 VRB03KT P6SM SCT200
     FM022000 30008KT P6SM SCT200=

USA.gov is the U.S. government's official web portal to all federal, state and local government web resources and services.